LNI1231 RCTP-RKSI

Flight info

Callsign LNI1231
Flight time N/A
Altitude 37000
Route PIANO1B PIANO L3 SALMI Y743 BOLUT Y741 ATOTI Y722 OLMEN OLMEN3C
Aircraft B739/M-SDE2E3FGHIRWXY/LB1

Departure

Time 2026-05-05 22:15
Airport Taiwan Taoyuan International Airport (RCTP)

Arrival

Time N/A
Airport Incheon International Airport (RKSI)
Time Latitude Longitude Altitude Speed Heading
2026-05-05 22:05 25.08457 121.23767 80 ft 0 kts 124°
2026-05-05 22:06 25.08467 121.23751 82 ft 4 kts 122°
2026-05-05 22:07 25.08482 121.23726 86 ft 4 kts 129°
2026-05-05 22:07 25.08499 121.23704 84 ft 3 kts 129°
2026-05-05 22:07 25.08513 121.23685 83 ft 4 kts 126°
2026-05-05 22:07 25.08527 121.23659 86 ft 4 kts 112°
2026-05-05 22:08 25.08532 121.23643 86 ft 1 kts 104°
2026-05-05 22:08 25.08533 121.23641 80 ft 0 kts 104°
2026-05-05 22:10 25.08533 121.23658 82 ft 7 kts 81°
2026-05-05 22:10 25.08574 121.23721 82 ft 13 kts 48°
2026-05-05 22:10 25.08614 121.23770 80 ft 14 kts 48°
2026-05-05 22:10 25.08661 121.23859 83 ft 15 kts 94°
2026-05-05 22:11 25.08587 121.23957 81 ft 19 kts 140°
2026-05-05 22:11 25.08476 121.24058 79 ft 22 kts 140°
2026-05-05 22:11 25.08352 121.24177 81 ft 24 kts 138°
2026-05-05 22:11 25.08228 121.24294 79 ft 23 kts 141°
2026-05-05 22:12 25.08110 121.24404 75 ft 20 kts 140°
2026-05-05 22:12 25.08047 121.24482 76 ft 10 kts 105°
2026-05-05 22:12 25.08069 121.24552 73 ft 11 kts 51°
2026-05-05 22:12 25.08129 121.24627 69 ft 17 kts 49°
2026-05-05 22:13 25.08232 121.24759 76 ft 28 kts 49°
2026-05-05 22:13 25.08374 121.24941 65 ft 29 kts 49°
2026-05-05 22:13 25.08439 121.25036 69 ft 13 kts 77°
2026-05-05 22:13 25.08396 121.25118 72 ft 13 kts 138°
2026-05-05 22:14 25.08322 121.25167 66 ft 13 kts 180°
2026-05-05 22:14 25.08278 121.25128 74 ft 0 kts 229°
2026-05-05 22:14 25.08176 121.25000 75 ft 63 kts 229°
2026-05-05 22:15 25.07710 121.24411 82 ft 137 kts 229°
2026-05-05 22:15 25.06946 121.23456 163 ft 190 kts 228°
2026-05-05 22:15 25.06025 121.22293 750 ft 211 kts 229°
2026-05-05 22:15 25.04991 121.20972 1237 ft 237 kts 230°
2026-05-05 22:16 25.03908 121.19589 2262 ft 236 kts 229°
2026-05-05 22:16 25.02871 121.18267 3419 ft 221 kts 229°
2026-05-05 22:16 25.02042 121.16836 4107 ft 232 kts 253°
2026-05-05 22:16 25.02041 121.14986 4426 ft 256 kts 287°
2026-05-05 22:17 25.02998 121.13306 5143 ft 265 kts 314°
2026-05-05 22:17 25.04492 121.12099 6047 ft 267 kts 326°
2026-05-05 22:17 25.06103 121.11081 6880 ft 269 kts 327°
2026-05-05 22:17 25.07747 121.10072 7631 ft 272 kts 327°
2026-05-05 22:18 25.09402 121.09044 8466 ft 272 kts 326°
2026-05-05 22:18 25.11035 121.08008 9369 ft 270 kts 324°
2026-05-05 22:18 25.12658 121.06961 10178 ft 271 kts 323°
2026-05-05 22:18 25.14330 121.05867 10521 ft 290 kts 323°
2026-05-05 22:19 25.16139 121.04677 10680 ft 314 kts 324°
2026-05-05 22:19 25.18271 121.03776 10808 ft 348 kts 346°
2026-05-05 22:19 25.20793 121.03936 11003 ft 381 kts 12°
2026-05-05 22:19 25.23182 121.05355 11395 ft 403 kts 38°
2026-05-05 22:20 25.25048 121.07708 11984 ft 411 kts 51°
2026-05-05 22:20 25.26725 121.10287 12549 ft 416 kts 53°
2026-05-05 22:20 25.28401 121.12915 13073 ft 421 kts 53°
2026-05-05 22:20 25.30129 121.15555 13600 ft 425 kts 52°
2026-05-05 22:21 25.31903 121.18183 14092 ft 429 kts 51°
2026-05-05 22:21 25.33692 121.20777 14603 ft 431 kts 50°
2026-05-05 22:21 25.35552 121.23448 15100 ft 434 kts 50°
2026-05-05 22:21 25.37378 121.26068 15527 ft 439 kts 50°
2026-05-05 22:22 25.39263 121.28766 15914 ft 444 kts 49°
2026-05-05 22:22 25.41235 121.31398 16415 ft 445 kts 47°
2026-05-05 22:22 25.43274 121.33988 16932 ft 447 kts 46°
2026-05-05 22:22 25.45338 121.36569 17405 ft 450 kts 46°
2026-05-05 22:23 25.47415 121.39168 17840 ft 453 kts 46°
2026-05-05 22:23 25.49504 121.41799 18271 ft 456 kts 46°
2026-05-05 22:23 25.51592 121.44447 18653 ft 458 kts 46°
2026-05-05 22:23 25.53687 121.47120 19079 ft 459 kts 46°
2026-05-05 22:24 25.55763 121.49777 19687 ft 455 kts 46°
2026-05-05 22:24 25.57838 121.52438 20045 ft 458 kts 46°
2026-05-05 22:24 25.59947 121.55139 20124 ft 469 kts 46°
2026-05-05 22:24 25.62097 121.57895 20367 ft 475 kts 46°
2026-05-05 22:25 25.64255 121.60666 20753 ft 476 kts 46°
2026-05-05 22:25 25.66424 121.63451 21164 ft 477 kts 46°
2026-05-05 22:25 25.68591 121.66237 21520 ft 479 kts 46°
2026-05-05 22:25 25.70772 121.69041 21834 ft 482 kts 46°
2026-05-05 22:26 25.72964 121.71861 22142 ft 484 kts 46°
2026-05-05 22:26 25.75170 121.74700 22546 ft 485 kts 47°
2026-05-05 22:26 25.77374 121.77539 22893 ft 487 kts 47°
2026-05-05 22:26 25.79594 121.80399 23178 ft 491 kts 47°
2026-05-05 22:27 25.81993 121.83112 23279 ft 494 kts 36°
2026-05-05 22:27 25.84743 121.85382 23540 ft 494 kts 31°
2026-05-05 22:27 25.87579 121.87546 23838 ft 495 kts 30°
2026-05-05 22:27 25.90424 121.89716 24120 ft 496 kts 31°
2026-05-05 22:28 25.93252 121.91927 24376 ft 498 kts 32°
2026-05-05 22:28 25.96066 121.94182 24653 ft 501 kts 32°
2026-05-05 22:28 25.98883 121.96471 24878 ft 504 kts 32°
2026-05-05 22:28 26.01722 121.98782 25132 ft 505 kts 32°
2026-05-05 22:29 26.04571 122.01080 25400 ft 507 kts 32°
2026-05-05 22:29 26.07414 122.03319 25657 ft 508 kts 31°
2026-05-05 22:29 26.10348 122.05601 25912 ft 510 kts 31°
2026-05-05 22:29 26.13228 122.07833 26147 ft 512 kts 31°
2026-05-05 22:30 26.16164 122.10110 26282 ft 516 kts 31°
2026-05-05 22:30 26.19112 122.12405 26525 ft 519 kts 31°
2026-05-05 22:30 26.22078 122.14724 26783 ft 520 kts 31°
2026-05-05 22:30 26.25040 122.17045 27044 ft 521 kts 31°
2026-05-05 22:31 26.28003 122.19371 27292 ft 523 kts 31°
2026-05-05 22:31 26.30984 122.21712 27519 ft 525 kts 31°
2026-05-05 22:31 26.33974 122.24063 27737 ft 527 kts 31°
2026-05-05 22:31 26.36972 122.26421 27952 ft 528 kts 31°
2026-05-05 22:32 26.39976 122.28784 28285 ft 528 kts 31°
2026-05-05 22:32 26.42966 122.31140 28710 ft 525 kts 31°
2026-05-05 22:32 26.45951 122.33493 29099 ft 524 kts 31°
2026-05-05 22:32 26.48931 122.35842 29334 ft 526 kts 32°
2026-05-05 22:33 26.51935 122.38208 29366 ft 532 kts 32°
2026-05-05 22:33 26.54969 122.40601 29582 ft 535 kts 32°
2026-05-05 22:33 26.58000 122.42995 29999 ft 533 kts 32°
2026-05-05 22:33 26.61023 122.45385 30467 ft 529 kts 32°
2026-05-05 22:34 26.64012 122.47752 30922 ft 525 kts 32°
2026-05-05 22:34 26.66984 122.50105 31296 ft 523 kts 32°
2026-05-05 22:34 26.69954 122.52457 31599 ft 523 kts 32°
2026-05-05 22:34 26.72923 122.54808 31902 ft 523 kts 32°
2026-05-05 22:35 26.75888 122.57158 32250 ft 521 kts 32°
2026-05-05 22:35 26.78845 122.59504 32624 ft 519 kts 32°
2026-05-05 22:35 26.81786 122.61839 33016 ft 518 kts 32°
2026-05-05 22:35 26.84722 122.64171 33243 ft 519 kts 32°
2026-05-05 22:36 26.87677 122.66519 33388 ft 522 kts 32°
2026-05-05 22:36 26.90644 122.68878 33650 ft 522 kts 32°
2026-05-05 22:36 26.93586 122.71221 34027 ft 519 kts 32°
2026-05-05 22:36 26.96524 122.73563 34366 ft 516 kts 32°
2026-05-05 22:37 26.99440 122.75888 34659 ft 514 kts 32°
2026-05-05 22:37 27.02356 122.78213 34888 ft 514 kts 32°
2026-05-05 22:37 27.05269 122.80538 35103 ft 514 kts 32°
2026-05-05 22:37 27.08178 122.82860 35357 ft 512 kts 32°
2026-05-05 22:38 27.11073 122.85182 35620 ft 511 kts 32°
2026-05-05 22:38 27.13956 122.87510 35868 ft 509 kts 32°
2026-05-05 22:38 27.16831 122.89837 36047 ft 509 kts 32°
2026-05-05 22:38 27.19710 122.92165 36148 ft 511 kts 32°
2026-05-05 22:39 27.22594 122.94527 36302 ft 513 kts 35°
2026-05-05 22:39 27.24349 122.96097 36472 ft 513 kts 37°
2026-05-05 22:39 27.27069 122.98672 36778 ft 510 kts 38°
2026-05-05 22:40 27.29748 123.01285 37044 ft 508 kts 38°
2026-05-05 22:40 27.35081 123.06478 37044 ft 511 kts 38°
2026-05-05 22:41 27.40483 123.11657 37031 ft 509 kts 37°
2026-05-05 22:41 27.45867 123.16806 37032 ft 508 kts 38°
2026-05-05 22:42 27.51238 123.21969 37039 ft 507 kts 38°
2026-05-05 22:42 27.56599 123.27135 37049 ft 508 kts 38°
2026-05-05 22:43 27.61971 123.32318 37052 ft 509 kts 38°
2026-05-05 22:43 27.67371 123.37534 37048 ft 512 kts 38°
2026-05-05 22:44 27.72786 123.42771 37058 ft 514 kts 38°
2026-05-05 22:44 27.78218 123.48032 37041 ft 514 kts 38°
2026-05-05 22:45 27.83644 123.53295 37068 ft 514 kts 38°
2026-05-05 22:45 27.89070 123.58565 37048 ft 514 kts 38°
2026-05-05 22:46 27.94486 123.63833 37042 ft 513 kts 38°
2026-05-05 22:46 27.99886 123.69091 37024 ft 512 kts 38°
2026-05-05 22:47 28.05269 123.74336 37061 ft 510 kts 38°
2026-05-05 22:47 28.10646 123.79580 37053 ft 509 kts 39°
2026-05-05 22:48 28.16003 123.84814 37051 ft 508 kts 39°
2026-05-05 22:48 28.21351 123.90047 37055 ft 508 kts 39°
2026-05-05 22:49 28.26695 123.95283 37055 ft 508 kts 39°
2026-05-05 22:49 28.31945 124.00639 37047 ft 509 kts 46°
2026-05-05 22:50 28.36273 124.07001 37061 ft 510 kts 54°
2026-05-05 22:50 28.40441 124.13544 37080 ft 512 kts 53°
2026-05-05 22:51 28.44663 124.20088 37064 ft 514 kts 53°
2026-05-05 22:51 28.48932 124.26629 37049 ft 516 kts 53°
2026-05-05 22:52 28.53219 124.33188 37067 ft 518 kts 53°
2026-05-05 22:52 28.57520 124.39788 37093 ft 520 kts 53°
2026-05-05 22:53 28.61826 124.46411 37066 ft 521 kts 53°
2026-05-05 22:53 28.66126 124.53036 37061 ft 520 kts 53°
2026-05-05 22:54 28.70423 124.59665 37064 ft 520 kts 53°
2026-05-05 22:54 28.74789 124.66238 37083 ft 520 kts 46°
2026-05-05 22:54 28.77386 124.69012 37073 ft 517 kts 35°
2026-05-05 22:55 28.80356 124.71295 37080 ft 513 kts 26°
2026-05-05 22:55 28.83570 124.73008 37058 ft 507 kts 15°
2026-05-05 22:55 28.86902 124.74317 37059 ft 506 kts 14°
2026-05-05 22:56 28.93584 124.76854 37076 ft 507 kts 14°
2026-05-05 22:56 28.99193 124.79022 37078 ft 508 kts 14°
2026-05-05 22:57 29.05891 124.81673 37076 ft 510 kts 15°
2026-05-05 22:57 29.12555 124.84341 37078 ft 511 kts 15°
2026-05-05 22:58 29.19276 124.87036 37095 ft 512 kts 15°
2026-05-05 22:58 29.26013 124.89737 37084 ft 513 kts 15°
2026-05-05 22:59 29.32753 124.92442 37083 ft 513 kts 15°
2026-05-05 22:59 29.39477 124.95144 37113 ft 512 kts 15°
2026-05-05 23:00 29.49548 124.99198 37075 ft 510 kts 15°
2026-05-05 23:00 29.56237 125.01896 37088 ft 509 kts 15°
2026-05-05 23:01 29.62917 125.04592 37098 ft 509 kts 15°
2026-05-05 23:01 29.69589 125.07289 37091 ft 508 kts 15°
2026-05-05 23:02 29.76266 125.09993 37089 ft 508 kts 15°
2026-05-05 23:02 29.82944 125.12701 37101 ft 509 kts 15°
2026-05-05 23:03 29.89623 125.15414 37093 ft 509 kts 15°
2026-05-05 23:03 29.96314 125.18135 37091 ft 509 kts 15°
2026-05-05 23:04 30.02993 125.20856 37107 ft 509 kts 15°
2026-05-05 23:04 30.09673 125.23588 37093 ft 509 kts 15°
2026-05-05 23:05 30.16295 125.26304 37076 ft 508 kts 15°
2026-05-05 23:05 30.22953 125.29037 37117 ft 508 kts 15°
2026-05-05 23:06 30.29618 125.31775 37097 ft 508 kts 15°
2026-05-05 23:06 30.36276 125.34515 37096 ft 508 kts 15°
2026-05-05 23:07 30.42942 125.37263 37119 ft 508 kts 15°
2026-05-05 23:07 30.49591 125.40007 37096 ft 507 kts 15°
2026-05-05 23:08 30.56228 125.42751 37092 ft 506 kts 15°
2026-05-05 23:08 30.62846 125.45491 37125 ft 504 kts 15°
2026-05-05 23:09 30.69442 125.48226 37102 ft 502 kts 15°
2026-05-05 23:09 30.76008 125.50953 37072 ft 501 kts 15°
2026-05-05 23:10 30.82602 125.53692 37103 ft 506 kts 15°
2026-05-05 23:10 30.89222 125.56448 37104 ft 505 kts 15°
2026-05-05 23:11 30.95826 125.59203 37100 ft 503 kts 15°
2026-05-05 23:11 31.02406 125.61952 37097 ft 502 kts 15°
2026-05-05 23:12 31.08967 125.64696 37100 ft 500 kts 15°
2026-05-05 23:12 31.15517 125.67439 37106 ft 499 kts 15°
2026-05-05 23:13 31.22054 125.70181 37107 ft 499 kts 15°
2026-05-05 23:13 31.28549 125.72909 37107 ft 499 kts 15°
2026-05-05 23:14 31.35083 125.75658 37086 ft 499 kts 15°
2026-05-05 23:14 31.41653 125.78425 37110 ft 504 kts 15°
2026-05-05 23:15 31.48261 125.81214 37112 ft 505 kts 15°
2026-05-05 23:15 31.54863 125.84006 37108 ft 503 kts 15°
2026-05-05 23:16 31.61440 125.86787 37107 ft 501 kts 15°
2026-05-05 23:16 31.67992 125.89541 37117 ft 500 kts 15°
2026-05-05 23:17 31.74524 125.92290 37109 ft 498 kts 15°
2026-05-05 23:17 31.81023 125.95031 37108 ft 495 kts 15°
2026-05-05 23:18 31.87501 125.97763 37117 ft 494 kts 15°
2026-05-05 23:18 31.93951 126.00486 37116 ft 492 kts 15°
2026-05-05 23:19 32.00382 126.03207 37117 ft 490 kts 15°
2026-05-05 23:19 32.06791 126.05922 37123 ft 489 kts 15°
2026-05-05 23:20 32.13183 126.08628 37118 ft 487 kts 15°
2026-05-05 23:20 32.19561 126.11330 37118 ft 486 kts 15°
2026-05-05 23:21 32.25879 126.14011 37128 ft 486 kts 16°
2026-05-05 23:21 32.32230 126.16711 37123 ft 485 kts 16°
2026-05-05 23:22 32.38564 126.19409 37122 ft 484 kts 16°
2026-05-05 23:22 32.44893 126.22108 37131 ft 483 kts 16°
2026-05-05 23:23 32.51202 126.24802 37119 ft 481 kts 16°
2026-05-05 23:23 32.57508 126.27502 37124 ft 482 kts 16°
2026-05-05 23:24 32.63812 126.30214 37140 ft 483 kts 16°
2026-05-05 23:24 32.70143 126.32943 37135 ft 485 kts 16°
2026-05-05 23:25 32.76491 126.35684 37129 ft 486 kts 16°
2026-05-05 23:25 32.82845 126.38431 37137 ft 486 kts 16°
2026-05-05 23:26 32.89183 126.41175 37125 ft 484 kts 16°
2026-05-05 23:26 32.95501 126.43915 37122 ft 482 kts 16°
2026-05-05 23:27 33.01790 126.46643 37125 ft 480 kts 16°
2026-05-05 23:27 33.08070 126.49332 37127 ft 478 kts 16°
2026-05-05 23:28 33.14343 126.52011 37137 ft 481 kts 15°
2026-05-05 23:28 33.20675 126.54723 37137 ft 484 kts 16°
2026-05-05 23:29 33.26999 126.57444 37133 ft 482 kts 16°
2026-05-05 23:29 33.33292 126.60154 37126 ft 480 kts 16°
2026-05-05 23:30 33.39556 126.62856 37141 ft 478 kts 16°
2026-05-05 23:30 33.45793 126.65584 37132 ft 476 kts 16°
2026-05-05 23:31 33.52009 126.68312 37132 ft 475 kts 16°
2026-05-05 23:31 33.58344 126.70279 37133 ft 466 kts
2026-05-05 23:32 33.64793 126.70897 37129 ft 465 kts
2026-05-05 23:32 33.71240 126.71500 37129 ft 464 kts
2026-05-05 23:33 33.77677 126.72175 37144 ft 464 kts
2026-05-05 23:33 33.84102 126.72870 37129 ft 464 kts
2026-05-05 23:34 33.90527 126.73558 37129 ft 463 kts
2026-05-05 23:34 33.96950 126.74226 37147 ft 462 kts
2026-05-05 23:35 34.03317 126.74891 37107 ft 464 kts
2026-05-05 23:35 34.09769 126.75564 37136 ft 467 kts
2026-05-05 23:36 34.16264 126.76240 37156 ft 468 kts
2026-05-05 23:36 34.22753 126.76922 37136 ft 468 kts
2026-05-05 23:37 34.29231 126.77603 37131 ft 466 kts
2026-05-05 23:37 34.35679 126.78284 37152 ft 464 kts
2026-05-05 23:38 34.42103 126.78964 37131 ft 462 kts
2026-05-05 23:38 34.48504 126.79642 37132 ft 460 kts
2026-05-05 23:39 34.54874 126.80318 37137 ft 459 kts
2026-05-05 23:39 34.61223 126.80992 37137 ft 457 kts
2026-05-05 23:40 34.67554 126.81666 37127 ft 456 kts
2026-05-05 23:40 34.72801 126.82225 37135 ft 455 kts
2026-05-05 23:41 34.79101 126.82897 37149 ft 454 kts
2026-05-05 23:41 34.86407 126.83678 37143 ft 453 kts
2026-05-05 23:42 34.92692 126.84350 37136 ft 453 kts
2026-05-05 23:42 34.97955 126.84915 37139 ft 453 kts
2026-05-05 23:43 35.04244 126.85590 37139 ft 454 kts
2026-05-05 23:43 35.10553 126.86268 37137 ft 455 kts
2026-05-05 23:44 35.16856 126.86949 37154 ft 455 kts
2026-05-05 23:44 35.23130 126.87632 37139 ft 456 kts
2026-05-05 23:45 35.29486 126.88325 37128 ft 455 kts
2026-05-05 23:45 35.35753 126.89009 37143 ft 455 kts
2026-05-05 23:46 35.42063 126.89698 37129 ft 455 kts
2026-05-05 23:46 35.48358 126.90387 37122 ft 454 kts
2026-05-05 23:47 35.54636 126.91074 37148 ft 452 kts
2026-05-05 23:47 35.60868 126.91756 37125 ft 447 kts
2026-05-05 23:48 35.67042 126.92432 37117 ft 444 kts
2026-05-05 23:48 35.73167 126.93104 37115 ft 441 kts
2026-05-05 23:49 35.79285 126.93775 37128 ft 441 kts
2026-05-05 23:49 35.85390 126.94447 37129 ft 441 kts
2026-05-05 23:50 35.91521 126.95123 37125 ft 443 kts
2026-05-05 23:50 35.97676 126.95808 37117 ft 445 kts
2026-05-05 23:51 36.03861 126.96499 36866 ft 451 kts
2026-05-05 23:51 36.07001 126.96849 36328 ft 452 kts
2026-05-05 23:51 36.10121 126.97200 35541 ft 451 kts
2026-05-05 23:52 36.13233 126.97550 34718 ft 445 kts
2026-05-05 23:52 36.16288 126.97895 33915 ft 438 kts
2026-05-05 23:52 36.19320 126.98235 33037 ft 438 kts
2026-05-05 23:52 36.22367 126.98575 32182 ft 439 kts
2026-05-05 23:53 36.25413 126.98916 31307 ft 440 kts
2026-05-05 23:53 36.28468 126.99258 30435 ft 442 kts
2026-05-05 23:53 36.31543 126.99604 29347 ft 446 kts
2026-05-05 23:53 36.34639 126.99952 28306 ft 448 kts
2026-05-05 23:54 36.37745 127.00301 27463 ft 445 kts
2026-05-05 23:54 36.40810 127.00463 26746 ft 439 kts 357°
2026-05-05 23:54 36.43842 127.00342 26057 ft 434 kts 355°
2026-05-05 23:54 36.46847 127.00162 25365 ft 430 kts 355°
2026-05-05 23:55 36.49824 126.99993 24707 ft 427 kts 356°
2026-05-05 23:55 36.52786 126.99858 24025 ft 425 kts 356°
2026-05-05 23:55 36.55738 126.99745 23294 ft 423 kts 356°
2026-05-05 23:55 36.58670 126.99639 22567 ft 420 kts 356°
2026-05-05 23:56 36.61571 126.99537 21907 ft 416 kts 356°
2026-05-05 23:56 36.64453 126.99435 21228 ft 412 kts 356°
2026-05-05 23:56 36.67272 126.99334 20595 ft 409 kts 357°
2026-05-05 23:56 36.70104 126.99231 19957 ft 406 kts 356°
2026-05-05 23:57 36.72916 126.99099 19328 ft 403 kts 353°
2026-05-05 23:57 36.75601 126.98258 18694 ft 398 kts 336°
2026-05-05 23:57 36.78133 126.96884 18006 ft 396 kts 335°
2026-05-05 23:57 36.80645 126.95499 17336 ft 393 kts 335°
2026-05-05 23:58 36.83144 126.94141 16689 ft 390 kts 335°
2026-05-05 23:58 36.85636 126.92814 16064 ft 388 kts 336°
2026-05-05 23:58 36.88113 126.91506 15458 ft 385 kts 336°
2026-05-05 23:58 36.90559 126.90181 14851 ft 382 kts 332°
2026-05-05 23:59 36.92672 126.88151 14222 ft 379 kts 309°
2026-05-05 23:59 36.94058 126.85424 13586 ft 376 kts 292°
2026-05-05 23:59 36.94769 126.82300 12958 ft 373 kts 280°
2026-05-05 23:59 36.95231 126.79129 12350 ft 369 kts 279°
2026-05-06 00:00 36.95684 126.75985 11898 ft 362 kts 279°
2026-05-06 00:00 36.96141 126.72939 11711 ft 353 kts 280°
2026-05-06 00:00 36.96613 126.69876 11522 ft 365 kts 280°
2026-05-06 00:00 36.97102 126.66741 11303 ft 368 kts 281°
2026-05-06 00:01 36.97586 126.63639 11071 ft 357 kts 281°
2026-05-06 00:01 36.98053 126.60648 10853 ft 342 kts 280°
2026-05-06 00:01 36.98507 126.57822 10635 ft 322 kts 284°
2026-05-06 00:01 36.99412 126.55360 10454 ft 305 kts 305°
2026-05-06 00:02 37.00778 126.53383 10303 ft 296 kts 313°
2026-05-06 00:02 37.02207 126.51580 10134 ft 287 kts 314°
2026-05-06 00:02 37.03591 126.49859 9954 ft 274 kts 314°
2026-05-06 00:02 37.04915 126.48201 9790 ft 266 kts 313°
2026-05-06 00:03 37.06218 126.46551 9644 ft 268 kts 313°
2026-05-06 00:03 37.07532 126.44874 9495 ft 272 kts 313°
2026-05-06 00:03 37.08861 126.43170 9336 ft 274 kts 313°
2026-05-06 00:03 37.10189 126.41465 9163 ft 273 kts 313°
2026-05-06 00:04 37.11502 126.39783 8981 ft 267 kts 313°
2026-05-06 00:04 37.12919 126.38318 8653 ft 261 kts 323°
2026-05-06 00:04 37.14389 126.37052 8343 ft 253 kts 323°
2026-05-06 00:04 37.15826 126.35827 8029 ft 246 kts 323°
2026-05-06 00:05 37.18546 126.33482 7488 ft 226 kts 322°
2026-05-06 00:05 37.19810 126.32373 7195 ft 217 kts 321°
2026-05-06 00:05 37.21018 126.31310 6917 ft 207 kts 321°
2026-05-06 00:06 37.22174 126.30287 6679 ft 200 kts 321°
2026-05-06 00:06 37.23305 126.29281 6440 ft 198 kts 320°
2026-05-06 00:06 37.24424 126.28286 6193 ft 197 kts 320°
2026-05-06 00:06 37.25582 126.27373 5933 ft 200 kts 336°
2026-05-06 00:07 37.26979 126.27380 5694 ft 209 kts 18°
2026-05-06 00:07 37.28137 126.28517 5475 ft 219 kts 50°
2026-05-06 00:07 37.29044 126.30103 5219 ft 227 kts 52°
2026-05-06 00:07 37.29960 126.31735 4923 ft 230 kts 53°
2026-05-06 00:08 37.30877 126.33366 4615 ft 227 kts 53°
2026-05-06 00:08 37.31783 126.34971 4311 ft 223 kts 53°
2026-05-06 00:08 37.32673 126.36543 4043 ft 220 kts 53°
2026-05-06 00:08 37.33457 126.38196 3764 ft 222 kts 76°
2026-05-06 00:09 37.33406 126.40041 3585 ft 205 kts 120°
2026-05-06 00:09 37.32621 126.41475 3613 ft 201 kts 145°
2026-05-06 00:09 37.31495 126.42513 3625 ft 203 kts 151°
2026-05-06 00:09 37.30340 126.43530 3617 ft 201 kts 151°
2026-05-06 00:10 37.29212 126.44527 3626 ft 198 kts 152°
2026-05-06 00:10 37.28081 126.45523 3609 ft 197 kts 151°
2026-05-06 00:10 37.26970 126.46507 3597 ft 195 kts 151°
2026-05-06 00:10 37.25867 126.47484 3597 ft 193 kts 151°
2026-05-06 00:11 37.24781 126.48436 3606 ft 193 kts 151°
2026-05-06 00:11 37.23686 126.49405 3604 ft 193 kts 151°
2026-05-06 00:11 37.22591 126.50375 3601 ft 193 kts 150°
2026-05-06 00:11 37.21495 126.51345 3596 ft 193 kts 150°
2026-05-06 00:12 37.20395 126.52319 3598 ft 194 kts 150°
2026-05-06 00:12 37.19334 126.53364 3588 ft 198 kts 134°
2026-05-06 00:12 37.18876 126.54994 3604 ft 206 kts 88°
2026-05-06 00:12 37.19418 126.56654 3637 ft 211 kts 53°
2026-05-06 00:13 37.20306 126.58156 3597 ft 216 kts 53°
2026-05-06 00:13 37.21186 126.59672 3597 ft 214 kts 53°
2026-05-06 00:13 37.22051 126.61180 3598 ft 211 kts 53°
2026-05-06 00:13 37.22883 126.62640 3596 ft 202 kts 54°
2026-05-06 00:14 37.23834 126.63895 3577 ft 195 kts 24°
2026-05-06 00:14 37.25110 126.64201 3608 ft 186 kts 345°
2026-05-06 00:14 37.26282 126.63623 3625 ft 180 kts 321°
2026-05-06 00:14 37.27326 126.62732 3620 ft 182 kts 318°
2026-05-06 00:15 37.28348 126.61824 3600 ft 178 kts 318°
2026-05-06 00:15 37.29345 126.60937 3619 ft 176 kts 318°
2026-05-06 00:15 37.30348 126.60045 3608 ft 177 kts 318°
2026-05-06 00:15 37.31376 126.59149 3423 ft 182 kts 320°
2026-05-06 00:16 37.32417 126.58265 3201 ft 180 kts 319°
2026-05-06 00:16 37.33424 126.57384 3003 ft 175 kts 317°
2026-05-06 00:16 37.34391 126.56525 2745 ft 166 kts 316°
2026-05-06 00:16 37.35305 126.55709 2528 ft 158 kts 315°
2026-05-06 00:17 37.36202 126.54903 2325 ft 159 kts 316°
2026-05-06 00:17 37.37101 126.54099 2114 ft 158 kts 316°
2026-05-06 00:17 37.38002 126.53293 1903 ft 160 kts 316°
2026-05-06 00:17 37.38913 126.52478 1699 ft 162 kts 317°
2026-05-06 00:18 37.39834 126.51654 1461 ft 162 kts 318°
2026-05-06 00:18 37.40744 126.50842 1242 ft 159 kts 319°
2026-05-06 00:18 37.41641 126.50039 1030 ft 158 kts 320°
2026-05-06 00:18 37.42539 126.49235 811 ft 158 kts 323°
2026-05-06 00:19 37.43433 126.48437 605 ft 158 kts 324°